| time (UTC) | temp F | wind direction | speed MPH | gust MPH | rain 1hr in | rain 24hr in | rain mn in | humidity % | barometer mb |
| 20260502164016 | 67 | 284 | 5.0 | 15.0 | 0.00 | 0.03 | 0.03 | 60 | 1014.4 |
| 20260502163016 | 67 | 278 | 7.0 | 13.0 | 0.00 | 0.03 | 0.03 | 61 | 1014.3 |
| 20260502162016 | 67 | 285 | 6.0 | 15.0 | 0.00 | 0.03 | 0.03 | 62 | 1014.4 |
| 20260502161036 | 66 | 299 | 8.0 | 16.0 | 0.00 | 0.03 | 0.03 | 64 | 1014.6 |
| 20260502152017 | 72 | 252 | 5.0 | 14.0 | 0.00 | 0.03 | 0.03 | 55 | 1014.9 |
| 20260502151017 | 71 | 257 | 6.0 | 11.0 | 0.00 | 0.03 | 0.03 | 57 | 1014.9 |
| 20260502123037 | 68 | 240 | 3.0 | 9.0 | 0.00 | 0.03 | 0.03 | 64 | 1016.7 |
| 20260502122017 | 68 | 229 | 4.0 | 8.0 | 0.00 | 0.03 | 0.03 | 65 | 1017.0 |
| 20260502121017 | 68 | 154 | 3.0 | 10.0 | 0.00 | 0.03 | 0.03 | 65 | 1017.0 |
| 20260502115017 | 66 | 238 | 5.0 | 9.0 | 0.00 | 0.03 | 0.03 | 69 | 1017.1 |
| 20260502114017 | 65 | 130 | 3.0 | 8.0 | 0.00 | 0.03 | 0.03 | 71 | 1017.4 |
| 20260502113017 | 65 | 243 | 2.0 | 8.0 | 0.00 | 0.03 | 0.03 | 72 | 1017.6 |
| 20260502112037 | 65 | 249 | 4.0 | 10.0 | 0.00 | 0.03 | 0.03 | 72 | 1017.8 |
| 20260502111017 | 65 | 218 | 3.0 | 7.0 | 0.00 | 0.03 | 0.03 | 74 | 1017.8 |
| 20260502110017 | 64 | 233 | 3.0 | 8.0 | 0.00 | 0.03 | 0.03 | 75 | 1017.9 |
| 20260502105017 | 64 | 192 | 2.0 | 9.0 | 0.00 | 0.03 | 0.03 | 76 | 1018.1 |
| 20260502104017 | 64 | 238 | 4.0 | 7.0 | 0.00 | 0.03 | 0.03 | 76 | 1018.3 |
| 20260502103017 | 64 | 88 | 2.0 | 4.0 | 0.00 | 0.03 | 0.03 | 79 | 1018.4 |
| 20260502102017 | 64 | 140 | 2.0 | 6.0 | 0.00 | 0.03 | 0.03 | 80 | 1018.4 |
| 20260502101037 | 63 | 263 | 1.0 | 5.0 | 0.00 | 0.03 | 0.03 | 82 | 1018.5 |
| 20260502091017 | 61 | 117 | 2.0 | 5.0 | 0.00 | 0.03 | 0.03 | 87 | 1018.6 |
| 20260502071017 | 59 | 134 | 2.0 | 6.0 | 0.01 | 0.01 | 0.01 | 85 | 1018.8 |
| 20260502070017 | 59 | 130 | 2.0 | 6.0 | 0.01 | 0.01 | 0.01 | 85 | 1019.0 |
| 20260502065037 | 60 | 120 | 3.0 | 6.0 | 0.01 | 0.01 | 0.01 | 84 | 1019.2 |
| 20260502064017 | 59 | 225 | 1.0 | 4.0 | 0.00 | 0.00 | 0.00 | 84 | 1019.2 |
| 20260502063017 | 60 | 237 | 2.0 | 4.0 | 0.00 | 0.00 | 0.00 | 83 | 1019.4 |
| 20260502062035 | 60 | 265 | 2.0 | 8.0 | 0.00 | 0.00 | 0.00 | 82 | 1019.6 |
| 20260502061037 | 60 | 245 | 4.0 | 11.0 | 0.00 | 0.00 | 0.00 | 81 | 1019.2 |
| 20260502060015 | 60 | 323 | 0.0 | 5.0 | 0.00 | 0.00 | 0.00 | 81 | 1018.8 |
| 20260502055017 | 60 | 92 | 1.0 | 6.0 | 0.00 | 0.00 | 0.00 | 81 | 1018.7 |
| 20260502054017 | 60 | 124 | 4.0 | 6.0 | 0.00 | 0.00 | 0.00 | 81 | 1018.5 |
| 20260502053017 | 60 | 117 | 1.0 | 9.0 | 0.00 | 0.00 | 0.00 | 81 | 1018.9 |
| 20260502052015 | 60 | 102 | 2.0 | 8.0 | 0.00 | 0.00 | 0.00 | 80 | 1019.1 |
| 20260502051017 | 60 | 125 | 4.0 | 9.0 | 0.00 | 0.00 | 0.00 | 80 | 1019.1 |
| 20260502050017 | 60 | 117 | 2.0 | 7.0 | 0.00 | 0.00 | 0.00 | 80 | 1019.3 |
| 20260502045017 | 60 | 92 | 1.0 | 6.0 | 0.00 | 0.00 | 0.00 | 80 | 1019.3 |
| 20260502044017 | 60 | 124 | 3.0 | 6.0 | 0.00 | 0.00 | 0.00 | 80 | 1019.1 |
| 20260502043017 | 60 | 116 | 2.0 | 5.0 | 0.00 | 0.00 | 0.00 | 80 | 1019.1 |
| 20260502042017 | 60 | 185 | 1.0 | 5.0 | 0.00 | 0.00 | 0.00 | 80 | 1019.1 |
| 20260502041015 | 60 | 125 | 4.0 | 7.0 | 0.00 | 0.00 | 0.00 | 80 | 1019.0 |
| 20260502040017 | 60 | 119 | 3.0 | 6.0 | 0.00 | 0.00 | 0.00 | 80 | 1019.2 |
| 20260502035035 | 60 | 253 | 2.0 | 4.0 | 0.00 | 0.00 | 0.00 | 80 | 1019.3 |
| 20260502034035 | 60 | 105 | 2.0 | 4.0 | 0.00 | 0.00 | 0.00 | 80 | 1019.2 |
| 20260502033015 | 60 | 135 | 1.0 | 5.0 | 0.00 | 0.00 | 0.00 | 79 | 1019.2 |
| 20260502032015 | 60 | 125 | 1.0 | 8.0 | 0.00 | 0.00 | 0.00 | 79 | 1019.1 |
| 20260502031015 | 60 | 141 | 2.0 | 6.0 | 0.00 | 0.00 | 0.00 | 79 | 1019.1 |
| 20260502030015 | 60 | 115 | 1.0 | 6.0 | 0.00 | 0.00 | 0.00 | 79 | 1019.2 |
| 20260502025015 | 60 | 110 | 2.0 | 8.0 | 0.00 | 0.00 | 0.00 | 79 | 1019.3 |
| 20260502024035 | 60 | 258 | 2.0 | 6.0 | 0.00 | 0.00 | 0.00 | 80 | 1019.4 |
| 20260502023015 | 60 | 272 | 1.0 | 4.0 | 0.00 | 0.00 | 0.00 | 80 | 1019.2 |
| 20260502022015 | 60 | 100 | 1.0 | 7.0 | 0.00 | 0.00 | 0.00 | 79 | 1019.2 |
| 20260502021015 | 60 | 124 | 3.0 | 7.0 | 0.00 | 0.00 | 0.00 | 79 | 1019.2 |
| 20260502020015 | 60 | 90 | 1.0 | 4.0 | 0.00 | 0.00 | 0.00 | 79 | 1019.3 |
| 20260502015016 | 60 | 227 | 2.0 | 6.0 | 0.00 | 0.00 | 0.00 | 79 | 1019.5 |
| 20260502014015 | 60 | 140 | 2.0 | 6.0 | 0.00 | 0.00 | 0.00 | 78 | 1019.4 |
| 20260502013035 | 60 | 242 | 2.0 | 9.0 | 0.00 | 0.00 | 0.00 | 78 | 1019.3 |
| 20260502012035 | 61 | 131 | 4.0 | 10.0 | 0.00 | 0.00 | 0.00 | 77 | 1019.4 |
| 20260502011015 | 61 | 137 | 3.0 | 11.0 | 0.00 | 0.00 | 0.00 | 77 | 1019.7 |
| 20260502010035 | 61 | 165 | 2.0 | 4.0 | 0.00 | 0.00 | 0.00 | 77 | 1019.9 |
| 20260502005016 | 61 | 231 | 2.0 | 7.0 | 0.00 | 0.00 | 0.00 | 77 | 1020.0 |
| 20260502004015 | 61 | 227 | 2.0 | 8.0 | 0.00 | 0.00 | 0.00 | 77 | 1019.9 |
| 20260502003015 | 61 | 49 | 1.0 | 9.0 | 0.00 | 0.00 | 0.00 | 76 | 1019.7 |
| 20260502002015 | 62 | 157 | 2.0 | 14.0 | 0.00 | 0.00 | 0.00 | 76 | 1019.8 |
| 20260502001015 | 62 | 122 | 7.0 | 12.0 | 0.00 | 0.00 | 0.00 | 75 | 1019.8 |
| 20260502000015 | 62 | 114 | 5.0 | 10.0 | 0.00 | 0.00 | 0.00 | 75 | 1019.9 |
| 20260501235017 | 63 | 115 | 3.0 | 9.0 | 0.00 | 0.00 | 0.00 | 74 | 1019.8 |
| 20260501234017 | 63 | 269 | 2.0 | 5.0 | 0.00 | 0.00 | 0.00 | 74 | 1020.1 |
| 20260501233016 | 63 | 157 | 3.0 | 8.0 | 0.00 | 0.00 | 0.00 | 73 | 1019.9 |
| 20260501232017 | 63 | 263 | 2.0 | 12.0 | 0.00 | 0.00 | 0.00 | 73 | 1020.0 |
| 20260501231017 | 64 | 122 | 3.0 | 10.0 | 0.00 | 0.00 | 0.00 | 72 | 1020.2 |
| 20260501230017 | 64 | 110 | 4.0 | 13.0 | 0.00 | 0.00 | 0.00 | 72 | 1019.9 |
| 20260501225015 | 64 | 116 | 5.0 | 14.0 | 0.00 | 0.00 | 0.00 | 72 | 1020.0 |
| 20260501224017 | 64 | 226 | 4.0 | 10.0 | 0.00 | 0.00 | 0.00 | 71 | 1020.1 |
| 20260501223017 | 65 | 233 | 4.0 | 10.0 | 0.00 | 0.00 | 0.00 | 71 | 1019.9 |
| 20260501222017 | 65 | 246 | 5.0 | 12.0 | 0.00 | 0.00 | 0.00 | 70 | 1019.9 |
| 20260501221017 | 66 | 116 | 3.0 | 9.0 | 0.00 | 0.00 | 0.00 | 68 | 1020.0 |
| 20260501220037 | 66 | 252 | 3.0 | 8.0 | 0.00 | 0.00 | 0.00 | 68 | 1019.8 |
| 20260501215017 | 66 | 243 | 2.0 | 10.0 | 0.00 | 0.00 | 0.00 | 67 | 1019.8 |
| 20260501214017 | 67 | 247 | 4.0 | 11.0 | 0.00 | 0.00 | 0.00 | 66 | 1019.8 |
| 20260501213117 | 67 | 253 | 3.0 | 12.0 | 0.00 | 0.00 | 0.00 | 64 | 1019.7 |
| 20260501212017 | 68 | 229 | 3.0 | 6.0 | 0.00 | 0.00 | 0.00 | 64 | 1019.6 |
| 20260501211017 | 68 | 206 | 3.0 | 11.0 | 0.00 | 0.00 | 0.00 | 63 | 1019.5 |
| 20260501210017 | 68 | 56 | 2.0 | 8.0 | 0.00 | 0.00 | 0.00 | 62 | 1019.3 |
| 20260501205017 | 69 | 188 | 4.0 | 10.0 | 0.00 | 0.00 | 0.00 | 61 | 1019.3 |
| 20260501204017 | 69 | 131 | 4.0 | 14.0 | 0.00 | 0.00 | 0.00 | 60 | 1019.1 |
| 20260501203017 | 70 | 89 | 4.0 | 12.0 | 0.00 | 0.00 | 0.00 | 57 | 1018.7 |
| 20260501202017 | 71 | 208 | 4.0 | 10.0 | 0.00 | 0.00 | 0.00 | 55 | 1018.7 |
| 20260501201017 | 71 | 243 | 3.0 | 15.0 | 0.00 | 0.00 | 0.00 | 51 | 1018.4 |
| 20260501200017 | 72 | 87 | 2.0 | 15.0 | 0.00 | 0.00 | 0.00 | 50 | 1018.2 |
| 20260501195037 | 73 | 115 | 7.0 | 14.0 | 0.00 | 0.00 | 0.00 | 42 | 1018.0 |
| 20260501194017 | 73 | 100 | 1.0 | 5.0 | 0.00 | 0.00 | 0.00 | 38 | 1017.6 |
| 20260501193035 | 74 | 111 | 2.0 | 5.0 | 0.00 | 0.00 | 0.00 | 37 | 1017.4 |
| 20260501192017 | 74 | 257 | 1.0 | 2.0 | 0.00 | 0.00 | 0.00 | 36 | 1017.3 |
| 20260501191017 | 74 | 247 | 1.0 | 3.0 | 0.00 | 0.00 | 0.00 | 35 | 1017.2 |
| 20260501190017 | 74 | 255 | 1.0 | 3.0 | 0.00 | 0.00 | 0.00 | 35 | 1017.0 |
| 20260501185037 | 75 | 270 | 2.0 | 5.0 | 0.00 | 0.00 | 0.00 | 34 | 1017.2 |
| 20260501184017 | 75 | 256 | 2.0 | 4.0 | 0.00 | 0.00 | 0.00 | 33 | 1017.1 |
| 20260501183017 | 76 | 268 | 2.0 | 4.0 | 0.00 | 0.00 | 0.00 | 33 | 1017.0 |
| 20260501182017 | 76 | 248 | 2.0 | 4.0 | 0.00 | 0.00 | 0.00 | 32 | 1017.0 |
| 20260501181017 | 76 | 249 | 2.0 | 8.0 | 0.00 | 0.00 | 0.00 | 32 | 1016.9 |
| 20260501180017 | 77 | 234 | 3.0 | 7.0 | 0.00 | 0.00 | 0.00 | 31 | 1016.9 |
| 20260501175017 | 77 | 240 | 2.0 | 6.0 | 0.00 | 0.00 | 0.00 | 30 | 1016.8 |
| 20260501174017 | 77 | 239 | 3.0 | 7.0 | 0.00 | 0.00 | 0.00 | 30 | 1017.0 |
| 20260501173017 | 78 | 269 | 3.0 | 9.0 | 0.00 | 0.00 | 0.00 | 30 | 1017.0 |
| 20260501172017 | 79 | 255 | 3.0 | 11.0 | 0.00 | 0.00 | 0.00 | 29 | 1017.0 |